Flag for Poland Weather past 2 weeks in Katowice, Poland

34 °F


Feels Like: 30 °F
Forecast: 23 / 33 °F
Wind: 5 mph from Southwest

Location: Katowice Airport

Current Time: Nov 26, 2015 at 4:29:48 AM

Latest Report: Nov 26, 2015 at 4:00 AM

Visibility: 10 mi

Pressure: 29.74 "Hg

Humidity: 75%

Dew point: 27 °F

Location of KatowiceLocation

Historic Weather in Katowice — Graph


Katowice temperature yesterday

Maximum temperature yesterday: 39 °F (at 2:00 PM)
Minimum temperature yesterday: 25 °F (at 12:00 AM)
Average temperature yesterday: 32 °F

Past Weeks' High & Low Weather Summary

High57 °F (Nov 11, 3:00 AM)100% (Nov 11, 7:30 AM)30.33 "Hg (Nov 11, 7:30 AM)
Low25 °F (Nov 25, 12:00 AM)56% (Nov 25, 2:00 PM)29.36 "Hg (Nov 21, 12:00 AM)
Average43 °F87%29.90 "Hg
* Reported Nov 11 3:00 AM — Nov 26 3:00 AM, Katowice, Weather by CustomWeather, © 2015

Note: Actual official high and low records may vary slightly from our data, if they occured in-between our weather recording intervals... More about our weather records


Katowice weather history for previous 24 hours

Time TempWeatherWind HumidityBarometerVisibility
3:00 AM
Thu, Nov 26
34 °FLight snow. Clear.7 mph75%29.74 "Hg5 mi
2:30 AM34 °FLight snow. Clear.7 mph75%29.74 "Hg5 mi
2:00 AM34 °FLight snow. Clear.7 mph75%29.74 "Hg5 mi
1:30 AM34 °FLight snow. Clear.6 mph75%29.74 "Hg5 mi
1:00 AM34 °FLight snow. Clear.7 mph75%29.74 "Hg5 mi
12:00 AM34 °FPassing clouds.8 mph75%29.74 "Hg5 mi
11:30 PM
Wed, Nov 25
34 °FPassing clouds.9 mph75%29.74 "Hg5 mi
11:00 PM34 °FPassing clouds.7 mph75%29.74 "Hg4 mi
10:30 PM34 °FPassing clouds.6 mph75%29.74 "Hg4 mi
10:00 PM34 °FPartly cloudy.3 mph75%29.74 "Hg4 mi
9:30 PM34 °FPassing clouds.3 mph75%29.74 "Hg5 mi
9:00 PM34 °FPassing clouds.7 mph75%29.74 "HgN/A
8:30 PM34 °FPassing clouds.7 mph75%29.74 "HgN/A
8:00 PM34 °FOvercast.9 mph75%29.77 "HgN/A
7:30 PM36 °FOvercast.9 mph70%29.77 "HgN/A
7:00 PM36 °FOvercast.9 mph70%29.77 "HgN/A
6:30 PM36 °FOvercast.7 mph70%29.77 "Hg5 mi
6:00 PM36 °FPassing clouds.5 mph70%29.77 "Hg5 mi
5:30 PM36 °FClear.5 mph70%29.77 "Hg5 mi
5:00 PM36 °FPassing clouds.5 mph70%29.77 "HgN/A
4:30 PM36 °FPassing clouds.3 mph65%29.77 "HgN/A
4:00 PM36 °FPassing clouds.5 mph65%29.77 "HgN/A
3:30 PM37 °FPartly sunny.5 mph60%29.77 "HgN/A
3:00 PM37 °FPartly sunny.7 mph60%29.77 "HgN/A
2:30 PM37 °FScattered clouds.12 mph60%29.77 "HgN/A
2:00 PM39 °FScattered clouds.10 mph56%29.80 "HgN/A
1:30 PM37 °FPassing clouds.12 mph60%29.80 "HgN/A
1:00 PM37 °FSunny.13 mph60%29.80 "Hg10 mi
12:30 PM37 °FPassing clouds.13 mph60%29.80 "HgN/A
12:00 PM37 °FPassing clouds.10 mph60%29.80 "HgN/A
11:30 AM36 °FSunny.13 mph65%29.83 "Hg10 mi
11:00 AM36 °FSunny.12 mph65%29.83 "Hg10 mi
10:30 AM34 °FSunny.10 mph70%29.86 "Hg10 mi
10:00 AM32 °FPassing clouds.7 mph75%29.86 "HgN/A
9:30 AM30 °FClear.8 mph75%29.86 "Hg5 mi
9:00 AM28 °FClear.9 mph74%29.89 "Hg5 mi
8:00 AM27 °FClear.10 mph80%29.89 "Hg5 mi
7:30 AM25 °FClear.13 mph86%29.89 "Hg5 mi
7:00 AM27 °FClear.13 mph80%29.89 "Hg5 mi
6:30 AM25 °FClear.14 mph86%29.89 "Hg6 mi
6:00 AM25 °FClear.12 mph86%29.89 "Hg6 mi
5:00 AM25 °FClear.12 mph86%29.92 "Hg6 mi
4:30 AM25 °FClear.10 mph86%29.92 "Hg4 mi
4:00 AM25 °FIce fog.12 mph86%29.95 "Hg3 mi
Weather by CustomWeather, © 2015

See weather overviewHow to use our weather pages